Temp
16 17 17 17 18 19 19 19 19 16 15 14 14 14 14 14 14 13 12 12 12 11
16 16 16 16 16 17 17 18 18 17 16 14 14 14 13 14 13 12 11 11 10 10
14 14 14 14 14 14 15 15 16 16 15 15 13 13 13 13 12 11 10 10 9 9
13 13 13 13 13 12 11 11 11 12 12 12 12 12 11 11 11 10 9 9 8 7
12 12 12 12 11 11 10 9 9 10 10 10 10 10 9 8 8 8 7 6 5 5
9 9 9 9 9 8 8 8 7 8 8 7 7 8 7 6 6 6 5 4 4 2
7 7 7 6 5 5 6 6 5 5 5 6 5 5 7 4 4 3 2 2 2 2
5 4 4 3 3 3 3 3 3 3 3 2 3 3 3 3 2 2 1 1 2 2
4 3 2 2 1 2 2 2 2 1 1 1 2 1 1 1 0 0 0 -0 -0 -0
2 2 1 1 1 1 1 1 1 1 1 2 1 1 -0 0 0 0 -0 -1 -1 -1
1 0 -0 -0 -0 -0 0 0 0 0 -0 -0 -0 -0 -0 -0 -0 -1 -1 -2 -2 -2
-0 -1 -1 -1 -1 -1 -0 -1 -1 -1 -1 -1 -1 -1 -0 -1 -1 -2 -3 -2 -2 -2
-1 -1 -1 -1 -1 -1 -1 -1 -1 -1 -2 -2 -2 -2 -2 -2 -2 -1 -1 -2 -2 -2
-0 -0 -1 -1 -1 -1 -1 -1 -1 -1 -1 -1 -1 -1 -1 -1 -0 -0 -1 -1 -2 -2
Height
758 757 756 755 754 754 753 753 752 753 755 756 757 758 760 761 762 763 766 768 770 772
756 755 754 753 752 752 751 750 749 749 749 751 753 754 755 755 755 757 759 762 766 770
756 754 753 752 751 750 750 749 748 747 747 746 746 748 752 751 751 752 754 756 760 763
756 754 752 751 750 749 748 746 746 745 745 745 745 745 748 750 750 750 750 752 754 758
756 754 752 751 750 749 749 747 745 743 743 743 743 739 744 750 751 747 749 750 752 756
756 754 753 753 750 748 748 749 746 743 743 744 743 734 738 748 753 751 749 751 752 755
758 757 755 752 748 747 748 749 749 747 745 741 740 740 734 748 751 754 754 753 755 757
760 757 754 751 750 750 749 749 750 749 746 746 741 743 742 747 752 755 756 757 757 760
760 756 755 755 755 754 752 751 751 750 749 749 745 748 752 754 756 755 758 761 761 764
761 760 759 760 759 757 756 756 755 754 754 751 754 757 758 761 762 761 763 764 765 767
764 763 764 764 762 760 760 759 759 759 759 756 762 764 764 765 767 767 768 769 769 769
767 766 767 766 765 765 765 764 765 766 765 765 770 770 769 770 771 772 771 771 771 772
770 769 770 770 769 770 769 769 770 771 771 773 773 773 773 773 774 775 774 774 775 774
773 773 774 773 773 774 774 775 775 775 776 777 777 778 778 777 776 776 777 776 776 776
Wind_Speed
10 10 11 13 18 20 20 20 19 22 25 28 31 33 34 30 31 30 33 34 30 24
10 10 11 11 12 15 16 18 19 17 19 21 25 28 29 31 30 27 27 27 24 23
8 7 8 8 9 10 12 13 15 16 15 17 17 21 25 27 26 26 24 23 23 24
9 9 9 8 9 9 9 10 11 12 12 13 14 14 17 21 20 20 20 22 24 22
10 10 10 10 10 11 11 10 8 7 9 7 11 8 10 13 15 20 20 20 19 19
11 11 10 10 10 11 11 10 8 4 3 3 5 6 4 9 13 15 16 17 18 21
10 10 9 10 11 11 9 8 8 6 2 3 4 4 6 7 10 10 11 15 18 18
9 10 11 13 12 10 9 8 6 6 8 7 7 6 5 9 12 13 15 16 16 15
10 12 13 12 10 11 11 10 11 12 12 11 15 11 7 9 15 19 19 17 17 16
10 11 11 9 10 13 15 17 21 22 21 22 19 15 14 13 14 16 17 17 15 12
9 10 9 9 13 15 17 19 21 22 23 25 18 16 13 13 15 15 14 12 11 9
11 12 12 15 16 17 19 22 22 20 19 20 16 14 13 12 11 10 10 9 8 6
13 15 17 17 18 19 19 19 17 17 16 14 14 14 13 10 7 5 6 5 3 2
15 15 15 16 16 16 16 15 15 14 11 8 8 7 7 7 6 5 3 2 1 1
Wind_Direction
289 284 278 270 266 268 269 263 254 247 258 251 243 239 235 231 227 219 218 218 217 214
296 292 292 291 283 278 275 275 274 268 263 263 256 244 239 236 229 222 218 220 218 220
324 327 318 310 306 301 296 290 283 272 264 263 260 252 248 239 231 223 221 215 209 205
327 330 329 331 333 326 314 306 295 289 279 266 256 250 247 243 233 219 204 202 202 205
344 341 339 345 348 347 340 329 308 290 285 269 239 226 256 256 237 214 201 199 201 193
0 4 3 1 7 5 359 349 345 336 342 293 238 175 205 247 244 217 212 204 191 181
10 8 11 16 25 27 19 11 6 15 41 105 102 168 152 216 214 204 184 180 176 172
15 22 25 29 29 30 38 37 30 40 43 49 79 73 112 171 172 168 156 152 155 156
26 35 36 39 41 50 55 59 62 58 66 69 65 76 102 150 150 144 141 132 128 126
37 46 49 54 69 75 82 86 81 81 83 80 79 87 96 127 132 127 130 129 123 120
49 59 66 76 80 85 90 89 90 91 90 83 80 87 105 122 116 111 111 112 110 103
73 79 83 87 91 92 94 93 89 88 88 92 81 84 98 103 100 98 96 100 100 95
86 92 95 98 101 103 100 97 94 89 87 86 87 76 75 81 90 98 90 91 74 78
92 93 101 105 105 101 99 96 85 74 71 76 79 78 70 62 72 69 75 61 20 345